�v������,���r���O(���x),�����t���O,���r���O(���x),�����t���O,��1(���x),�����t���O,�������x,�����t���O
11/1/2002 0:00,19.7,1,0,1,18.6,1,18.4,1
11/1/2002 0:15,19.7,1,0,1,19.7,1,15.6,1
11/1/2002 0:30,19.8,1,0,1,20.4,1,15.7,1
11/1/2002 0:45,25.8,1,0,1,20.3,1,15.4,1
11/1/2002 1:00,26.5,1,0,1,20.1,1,15.6,1
11/1/2002 1:15,24.5,1,0,1,19.9,1,15.8,1
11/1/2002 1:30,22.7,1,0,1,19.8,1,15.9,1
11/1/2002 1:45,22,1,0,1,19.7,1,16.1,1
11/1/2002 2:00,21.7,1,0,1,19.6,1,16.2,1
11/1/2002 2:15,21.3,1,0,1,19.5,1,16.4,1
11/1/2002 2:30,21,1,0,1,19.5,1,16.5,1
11/1/2002 2:45,20.8,1,0,1,19.5,1,16.6,1
11/1/2002 3:00,20.6,1,0,1,19.5,1,16.7,1
11/1/2002 3:15,20.5,1,0,1,19.4,1,16.9,1
11/1/2002 3:30,20.3,1,0,1,19.4,1,17,1
11/1/2002 3:45,20.2,1,0,1,19.4,1,17.1,1
11/1/2002 4:00,20.1,1,0,1,19.4,1,17.2,1
11/1/2002 4:15,19.9,1,0,1,19.3,1,17.3,1
11/1/2002 4:30,19.8,1,0,1,19.3,1,17.4,1
11/1/2002 4:45,19.7,1,0,1,19.2,1,17.5,1
11/1/2002 5:00,19.6,1,0,1,19.2,1,17.7,1
11/1/2002 5:15,19.6,1,0,1,19.1,1,17.8,1
11/1/2002 5:30,19.5,1,0,1,19.1,1,17.9,1
11/1/2002 5:45,19.5,1,0,1,19.1,1,18,1
11/1/2002 6:00,19.5,1,0,1,19.1,1,18,1
11/1/2002 6:15,19.4,1,0,1,19,1,18.1,1
11/1/2002 6:30,19.4,1,0,1,19,1,18.2,1
11/1/2002 6:45,19.4,1,0,1,18.9,1,18.3,1
11/1/2002 7:00,23.3,1,0,1,18.8,1,18.4,1
11/1/2002 7:15,21.6,1,0,1,18.8,1,18.5,1
11/1/2002 7:30,20.9,1,0,1,18.7,1,18.6,1
11/1/2002 7:45,20.6,1,0,1,18.6,1,18.6,1
11/1/2002 8:00,20.3,1,0,1,18.5,1,18.7,1
11/1/2002 8:15,20.1,1,0,1,18.5,1,18.8,1
11/1/2002 8:30,19.9,1,0,1,18.4,1,18.9,1
11/1/2002 8:45,19.7,1,0,1,18.4,1,18.9,1
11/1/2002 9:00,19.7,1,0,1,18.3,1,19,1
11/1/2002 9:15,19.6,1,0,1,18.3,1,19.1,1
11/1/2002 9:30,19.5,1,0,1,18.3,1,19.1,1
11/1/2002 9:45,19.5,1,0,1,18.2,1,19.2,1
11/1/2002 10:00,19.4,1,0,1,18.2,1,19.2,1
11/1/2002 10:15,19.4,1,0,1,18.2,1,19.3,1
11/1/2002 10:30,19.4,1,0,1,18.1,1,19.3,1
11/1/2002 10:45,19.3,1,0,1,18.1,1,19.4,1
11/1/2002 11:00,19.3,1,0,1,18.1,1,19.4,1
11/1/2002 11:15,19.3,1,0,1,18.1,1,19.5,1
11/1/2002 11:30,19.2,1,0,1,18,1,19.5,1
11/1/2002 11:45,19.2,1,0,1,18,1,19.6,1
11/1/2002 12:00,19.2,1,0,1,18,1,19.6,1
11/1/2002 12:15,19.2,1,0,1,17.9,1,19.6,1
11/1/2002 12:30,19.1,1,0,1,17.9,1,19.7,1
11/1/2002 12:45,19.1,1,0,1,17.9,1,19.7,1
11/1/2002 13:00,19.1,1,0,1,17.8,1,19.8,1
11/1/2002 13:15,19,1,0,1,17.8,1,19.8,1
11/1/2002 13:30,19,1,0,1,17.7,1,19.8,1
11/1/2002 13:45,19,1,0,1,17.7,1,19.9,1
11/1/2002 14:00,18.9,1,0,1,17.7,1,19.9,1
11/1/2002 14:15,18.9,1,0,1,17.6,1,19.9,1
11/1/2002 14:30,18.9,1,0,1,17.6,1,20,1
11/1/2002 14:45,18.8,1,0,1,17.5,1,20,1
11/1/2002 15:00,18.8,1,0,1,17.5,1,20,1
11/1/2002 15:15,18.8,1,0,1,17.4,1,20.1,1
11/1/2002 15:30,18.7,1,0,1,17.3,1,20.1,1
11/1/2002 15:45,18.7,1,0,1,17.3,1,20.1,1
11/1/2002 16:00,18.6,1,0,1,17.2,1,20.2,1
11/1/2002 16:15,18.6,1,0,1,17.2,1,20.2,1
11/1/2002 16:30,18.6,1,0,1,17.2,1,20.2,1
11/1/2002 16:45,18.6,1,0,1,17.1,1,20.3,1
11/1/2002 17:00,18.5,1,0,1,17.1,1,20.3,1
11/1/2002 17:15,18.5,1,0,1,17.1,1,20.3,1
11/1/2002 17:30,18.5,1,0,1,17,1,20.3,1
11/1/2002 17:45,18.5,1,0,1,17,1,20.4,1
11/1/2002 18:00,18.4,1,0,1,17,1,20.4,1
11/1/2002 18:15,18.4,1,0,1,17,1,20.4,1
11/1/2002 18:30,18.4,1,0,1,16.9,1,20.4,1
11/1/2002 18:45,18.3,1,0,1,16.9,1,20.5,1
11/1/2002 19:00,18.3,1,0,1,16.9,1,20.5,1
11/1/2002 19:15,18.3,1,0,1,16.9,1,20.5,1
11/1/2002 19:30,18.3,1,0,1,16.8,1,17.4,1
11/1/2002 19:45,18.3,1,0,1,16.8,1,17.5,1
11/1/2002 20:00,18.3,1,0,1,16.8,1,17.6,1
11/1/2002 20:15,18.4,1,0,1,16.7,1,17.7,1
11/1/2002 20:30,18.4,1,0,1,16.7,1,17.8,1
11/1/2002 20:45,18.5,1,0,1,16.6,1,17.9,1
11/1/2002 21:00,18.4,1,0,1,16.6,1,18,1
11/1/2002 21:15,18.4,1,0,1,16.5,1,18.1,1
11/1/2002 21:30,18.4,1,0,1,16.5,1,18.2,1
11/1/2002 21:45,18.4,1,0,1,16.5,1,18.2,1
11/1/2002 22:00,18.4,1,0,1,16.4,1,18.3,1
11/1/2002 22:15,18.4,1,0,1,16.4,1,18.4,1
11/1/2002 22:30,18.4,1,0,1,16.4,1,18.5,1
11/1/2002 22:45,18.4,1,0,1,16.5,1,18.5,1
11/1/2002 23:00,18.3,1,0,1,18.1,1,18.6,1
11/1/2002 23:15,18.3,1,0,1,19.1,1,18.6,1
11/1/2002 23:30,18.3,1,0,1,19.8,1,18.7,1
11/1/2002 23:45,18.3,1,0,1,20.3,1,18.8,1
11/2/2002 0:00,24.1,1,0,1,19.9,1,18.8,1
11/2/2002 0:15,25.2,1,0,1,19.4,1,18.9,1
11/2/2002 0:30,26.1,1,0,1,19.2,1,18.9,1
11/2/2002 0:45,22.7,1,0,1,19.1,1,16.7,1
11/2/2002 1:00,21.6,1,0,1,18.9,1,16.8,1
11/2/2002 1:15,21,1,0,1,18.7,1,16.9,1
11/2/2002 1:30,20.5,1,0,1,18.6,1,17,1
11/2/2002 1:45,20.1,1,0,1,18.5,1,17.1,1
11/2/2002 2:00,19.8,1,0,1,18.4,1,17.2,1
11/2/2002 2:15,19.6,1,0,1,18.3,1,17.3,1
11/2/2002 2:30,19.5,1,0,1,18.2,1,16.1,1
11/2/2002 2:45,19.3,1,0,1,18.2,1,16.2,1
11/2/2002 3:00,19.1,1,0,1,18.1,1,16.3,1
11/2/2002 3:15,18.9,1,0,1,18,1,16.5,1
11/2/2002 3:30,18.8,1,0,1,17.9,1,16.6,1
11/2/2002 3:45,18.6,1,0,1,17.9,1,16.7,1
11/2/2002 4:00,18.5,1,0,1,17.8,1,16.8,1
11/2/2002 4:15,18.5,1,0,1,17.8,1,16.9,1
11/2/2002 4:30,18.5,1,0,1,17.7,1,17,1
11/2/2002 4:45,18.4,1,0,1,17.7,1,17.1,1
11/2/2002 5:00,18.3,1,0,1,17.6,1,17.2,1
11/2/2002 5:15,18.3,1,0,1,17.6,1,17.2,1
11/2/2002 5:30,18.1,1,0,1,17.5,1,17.3,1
11/2/2002 5:45,18,1,0,1,17.5,1,17.4,1
11/2/2002 6:00,17.9,1,0,1,17.4,1,17.5,1
11/2/2002 6:15,17.8,1,0,1,17.3,1,17.6,1
11/2/2002 6:30,17.7,1,0,1,17.2,1,17.6,1
11/2/2002 6:45,17.7,1,0,1,17.2,1,17.7,1
11/2/2002 7:00,17.6,1,0,1,17.1,1,17.7,1
11/2/2002 7:15,17.6,1,0,1,17,1,17.8,1
11/2/2002 7:30,20.6,1,0,1,16.8,1,15.6,1
11/2/2002 7:45,24.7,1,0,1,16.9,1,14.8,1
11/2/2002 8:00,21,1,0,1,17.1,1,14.9,1
11/2/2002 8:15,20,1,0,1,17,1,15.1,1
11/2/2002 8:30,19.7,1,0,1,16.9,1,15.2,1
11/2/2002 8:45,19.5,1,0,1,16.8,1,15.3,1
11/2/2002 9:00,19.4,1,0,1,16.8,1,15.4,1
11/2/2002 9:15,18.8,1,0,1,16.7,1,15.5,1
11/2/2002 9:30,18.6,1,0,1,16.5,1,15.7,1
11/2/2002 9:45,15.9,1,0,1,16.4,1,15.8,1
11/2/2002 10:00,15.9,1,0,1,16.3,1,15.9,1
11/2/2002 10:15,17.6,1,0,1,16.3,1,16,1
11/2/2002 10:30,18.2,1,0,1,16.5,1,16.1,1
11/2/2002 10:45,18.5,1,0,1,16.8,1,16.1,1
11/2/2002 11:00,18.9,1,0,1,17.2,1,16.2,1
11/2/2002 11:15,18.9,1,0,1,17.4,1,16.3,1
11/2/2002 11:30,19,1,0,1,17.5,1,15.4,1
11/2/2002 11:45,19.2,1,0,1,17.6,1,15.5,1
11/2/2002 12:00,19.3,1,0,1,17.7,1,15.6,1
11/2/2002 12:15,19.5,1,0,1,17.8,1,15.7,1
11/2/2002 12:30,19.4,1,0,1,17.8,1,15.8,1
11/2/2002 12:45,19.5,1,0,1,17.8,1,15.9,1
11/2/2002 13:00,19.5,1,0,1,17.9,1,16,1
11/2/2002 13:15,19.5,1,0,1,17.9,1,16.1,1
11/2/2002 13:30,19.6,1,0,1,18,1,16.2,1
11/2/2002 13:45,19.6,1,0,1,18.1,1,16.3,1
11/2/2002 14:00,19.7,1,0,1,18.2,1,16.4,1
11/2/2002 14:15,19.7,1,0,1,18.3,1,16.5,1
11/2/2002 14:30,19.7,1,0,1,18.3,1,16.6,1
11/2/2002 14:45,19.7,1,0,1,18.4,1,16.7,1
11/2/2002 15:00,19.8,1,0,1,18.4,1,16.8,1
11/2/2002 15:15,19.8,1,0,1,18.5,1,16.9,1
11/2/2002 15:30,19.7,1,0,1,18.5,1,17,1
11/2/2002 15:45,19.7,1,0,1,18.5,1,17.1,1
11/2/2002 16:00,19.6,1,0,1,18.5,1,17.2,1
11/2/2002 16:15,19.5,1,0,1,18.5,1,17.2,1
11/2/2002 16:30,19.5,1,0,1,18.4,1,17.3,1
11/2/2002 16:45,19.4,1,0,1,18.3,1,17.4,1
11/2/2002 17:00,19.4,1,0,1,18.3,1,17.5,1
11/2/2002 17:15,19.3,1,0,1,18.2,1,17.6,1
11/2/2002 17:30,19.3,1,0,1,18.1,1,17.7,1
11/2/2002 17:45,19.2,1,0,1,18.1,1,17.8,1
11/2/2002 18:00,19.2,1,0,1,18,1,17.8,1
11/2/2002 18:15,19.2,1,0,1,18,1,17.9,1
11/2/2002 18:30,19.2,1,0,1,18,1,18,1
11/2/2002 18:45,19.2,1,0,1,17.9,1,18.1,1
11/2/2002 19:00,19.1,1,0,1,17.8,1,18.2,1
11/2/2002 19:15,19.1,1,0,1,17.8,1,15.9,1
11/2/2002 19:30,19.1,1,0,1,17.7,1,16,1
11/2/2002 19:45,19.1,1,0,1,17.7,1,16.2,1
11/2/2002 20:00,19.1,1,0,1,17.6,1,16.3,1
11/2/2002 20:15,19,1,0,1,17.6,1,16.4,1
11/2/2002 20:30,24.6,1,0,1,17.6,1,16.5,1
11/2/2002 20:45,25.8,1,0,1,17.9,1,16.6,1
11/2/2002 21:00,26.7,1,0,1,18.2,1,16.7,1
11/2/2002 21:15,23.9,1,0,1,18.4,1,16.8,1
11/2/2002 21:30,22.5,1,0,1,18.3,1,16.9,1
11/2/2002 21:45,21.6,1,0,1,18.2,1,17,1
11/2/2002 22:00,20.9,1,0,1,18.1,1,17.1,1
11/2/2002 22:15,20.6,1,0,1,18,1,17.2,1
11/2/2002 22:30,20.3,1,0,1,17.9,1,17.3,1
11/2/2002 22:45,20.1,1,0,1,17.7,1,17.4,1
11/2/2002 23:00,19.8,1,0,1,17.6,1,15.8,1
11/2/2002 23:15,19.6,1,0,1,17.5,1,16,1
11/2/2002 23:30,24.6,1,0,1,17.5,1,16.1,1
11/2/2002 23:45,25.6,1,0,1,18.1,1,16.2,1
11/3/2002 0:00,26.6,1,0,1,19.2,1,16.4,1
11/3/2002 0:15,23.1,1,0,1,19.1,1,16.5,1
11/3/2002 0:30,22.1,1,0,1,18.8,1,16.6,1
11/3/2002 0:45,25.5,1,0,1,18.6,1,16.7,1
11/3/2002 1:00,23.7,1,0,1,18.6,1,16.8,1
11/3/2002 1:15,21.9,1,0,1,18.5,1,16.9,1
11/3/2002 1:30,21.3,1,0,1,18.3,1,17,1
11/3/2002 1:45,20.8,1,0,1,18.1,1,17.1,1
11/3/2002 2:00,20.4,1,0,1,18,1,17.1,1
11/3/2002 2:15,20.1,1,0,1,17.9,1,17.2,1
11/3/2002 2:30,19.8,1,0,1,17.7,1,17.3,1
11/3/2002 2:45,19.6,1,0,1,17.6,1,17.4,1
11/3/2002 3:00,19.4,1,0,1,17.6,1,17.5,1
11/3/2002 3:15,19.2,1,0,1,17.4,1,17.5,1
11/3/2002 3:30,19.1,1,0,1,17.3,1,17.6,1
11/3/2002 3:45,18.9,1,0,1,17.2,1,17.7,1
11/3/2002 4:00,18.8,1,0,1,17.1,1,17.7,1
11/3/2002 4:15,18.6,1,0,1,17.1,1,17.8,1
11/3/2002 4:30,18.4,1,0,1,17,1,17.9,1
11/3/2002 4:45,18.3,1,0,1,16.9,1,17.9,1
11/3/2002 5:00,18.1,1,0,1,16.8,1,18,1
11/3/2002 5:15,17.9,1,0,1,16.7,1,18,1
11/3/2002 5:30,17.8,1,0,1,16.7,1,18.1,1
11/3/2002 5:45,17.7,1,0,1,16.6,1,18.2,1
11/3/2002 6:00,17.6,1,0,1,16.6,1,18.2,1
11/3/2002 6:15,17.5,1,0,1,16.4,1,18.3,1
11/3/2002 6:30,17.4,1,0,1,16.3,1,18.3,1
11/3/2002 6:45,17.4,1,0,1,16.2,1,18.3,1
11/3/2002 7:00,17.2,1,0,1,16.2,1,18.4,1
11/3/2002 7:15,17.3,1,0,1,16.1,1,16,1
11/3/2002 7:30,23.2,1,0,1,15.9,1,16.3,1
11/3/2002 7:45,20.1,1,0,1,15.9,1,16.4,1
11/3/2002 8:00,19.3,1,0,1,15.8,1,14.9,1
11/3/2002 8:15,19,1,0,1,15.8,1,15.1,1
11/3/2002 8:30,18.8,1,0,1,15.7,1,15.2,1
11/3/2002 8:45,18.7,1,0,1,15.7,1,15.3,1
11/3/2002 9:00,18.6,1,0,1,15.7,1,15.4,1
11/3/2002 9:15,18.7,1,0,1,15.7,1,15.5,1
11/3/2002 9:30,18.8,1,0,1,15.8,1,15.7,1
11/3/2002 9:45,18.9,1,0,1,15.9,1,15.8,1
11/3/2002 10:00,19,1,0,1,16,1,15.9,1
11/3/2002 10:15,19.2,1,0,1,16.1,1,16,1
11/3/2002 10:30,19.5,1,0,1,16.4,1,16.1,1
11/3/2002 10:45,19.5,1,0,1,17,1,16.2,1
11/3/2002 11:00,19.5,1,0,1,17.5,1,16.3,1
11/3/2002 11:15,19.4,1,0,1,17.9,1,16.4,1
11/3/2002 11:30,19.5,1,0,1,18.2,1,16.4,1
11/3/2002 11:45,19.5,1,0,1,18.3,1,16.5,1
11/3/2002 12:00,19.6,1,0,1,18.4,1,16.6,1
11/3/2002 12:15,19.7,1,0,1,18.5,1,16.7,1
11/3/2002 12:30,19.8,1,0,1,18.6,1,16.8,1
11/3/2002 12:45,19.9,1,0,1,18.6,1,16.9,1
11/3/2002 13:00,20.1,1,0,1,18.6,1,17,1
11/3/2002 13:15,20.2,1,0,1,18.7,1,17,1
11/3/2002 13:30,20.3,1,0,1,18.8,1,17.1,1
11/3/2002 13:45,20.4,1,0,1,18.9,1,17.2,1
11/3/2002 14:00,20.5,1,0,1,19,1,17.3,1
11/3/2002 14:15,20.5,1,0,1,19.1,1,17.4,1
11/3/2002 14:30,20.6,1,0,1,19.2,1,17.4,1
11/3/2002 14:45,20.7,1,0,1,19.3,1,17.5,1
11/3/2002 15:00,20.7,1,0,1,19.4,1,17.6,1
11/3/2002 15:15,20.7,1,0,1,19.5,1,17.7,1
11/3/2002 15:30,20.7,1,0,1,19.6,1,17.8,1
11/3/2002 15:45,20.7,1,0,1,19.6,1,17.8,1
11/3/2002 16:00,20.6,1,0,1,19.6,1,17.9,1
11/3/2002 16:15,20.5,1,0,1,19.6,1,18,1
11/3/2002 16:30,20.4,1,0,1,19.5,1,18.1,1
11/3/2002 16:45,20.4,1,0,1,19.4,1,18.2,1
11/3/2002 17:00,20.3,1,0,1,19.3,1,18.3,1
11/3/2002 17:15,20.2,1,0,1,19.2,1,18.3,1
11/3/2002 17:30,20.2,1,0,1,19.1,1,18.4,1
11/3/2002 17:45,20.1,1,0,1,19.1,1,18.5,1
11/3/2002 18:00,20,1,0,1,19,1,18.5,1
11/3/2002 18:15,19.9,1,0,1,18.9,1,18.6,1
11/3/2002 18:30,19.9,1,0,1,18.8,1,18.7,1
11/3/2002 18:45,19.8,1,0,1,18.7,1,18.8,1
11/3/2002 19:00,19.8,1,0,1,18.7,1,18.8,1
11/3/2002 19:15,19.8,1,0,1,18.6,1,16.3,1
11/3/2002 19:30,19.8,1,0,1,18.6,1,16.4,1
11/3/2002 19:45,19.8,1,0,1,18.5,1,16.6,1
11/3/2002 20:00,19.7,1,0,1,18.4,1,16.7,1
11/3/2002 20:15,19.7,1,0,1,18.4,1,16.8,1
11/3/2002 20:30,19.7,1,0,1,18.3,1,16.9,1
11/3/2002 20:45,19.6,1,0,1,18.2,1,17,1
11/3/2002 21:00,19.5,1,0,1,18.1,1,17.1,1
11/3/2002 21:15,19.5,1,0,1,18,1,17.2,1
11/3/2002 21:30,19.4,1,0,1,17.9,1,17.3,1
11/3/2002 21:45,19.4,1,0,1,17.9,1,17.4,1
11/3/2002 22:00,19.5,1,0,1,17.8,1,17.5,1
11/3/2002 22:15,19.4,1,0,1,17.8,1,17.6,1
11/3/2002 22:30,19.4,1,0,1,17.8,1,15.6,1
11/3/2002 22:45,19.4,1,0,1,17.7,1,15.7,1
11/3/2002 23:00,19.3,1,0,1,17.6,1,15.9,1
11/3/2002 23:15,19.3,1,0,1,17.5,1,16,1
11/3/2002 23:30,19.2,1,0,1,17.5,1,16.1,1
11/3/2002 23:45,19.1,1,0,1,17.4,1,16.2,1
11/4/2002 0:00,19,1,0,1,17.4,1,16.3,1
11/4/2002 0:15,18.9,1,0,1,17.4,1,16.5,1
11/4/2002 0:30,18.8,1,0,1,17.3,1,16.6,1
11/4/2002 0:45,18.6,1,0,1,17.3,1,16.7,1
11/4/2002 1:00,18.6,1,0,1,17.3,1,16.8,1
11/4/2002 1:15,18.4,1,0,1,17.2,1,16.9,1
11/4/2002 1:30,18.3,1,0,1,17.2,1,17,1
11/4/2002 1:45,18.3,1,0,1,17.1,1,17.1,1
11/4/2002 2:00,18.2,1,0,1,17.1,1,17.2,1
11/4/2002 2:15,18,1,0,1,17,1,17.2,1
11/4/2002 2:30,17.9,1,0,1,16.9,1,17.3,1
11/4/2002 2:45,17.7,1,0,1,16.9,1,17.4,1
11/4/2002 3:00,17.6,1,0,1,16.8,1,17.5,1
11/4/2002 3:15,17.5,1,0,1,16.8,1,17.6,1
11/4/2002 3:30,17.4,1,0,1,16.7,1,17.7,1
11/4/2002 3:45,17.4,1,0,1,16.7,1,17.7,1
11/4/2002 4:00,17.2,1,0,1,16.6,1,17.8,1
11/4/2002 4:15,17.1,1,0,1,16.5,1,17.9,1
11/4/2002 4:30,17.1,1,0,1,16.5,1,17.9,1
11/4/2002 4:45,17.1,1,0,1,16.4,1,18,1
11/4/2002 5:00,16.9,1,0,1,16.3,1,18.1,1
11/4/2002 5:15,16.9,1,0,1,16.3,1,18.1,1
11/4/2002 5:30,16.8,1,0,1,16.2,1,18.2,1
11/4/2002 5:45,16.8,1,0,1,16.1,1,18.2,1
11/4/2002 6:00,16.7,1,0,1,16,1,18.3,1
11/4/2002 6:15,16.7,1,0,1,16,1,18.3,1
11/4/2002 6:30,16.6,1,0,1,16,1,18.4,1
11/4/2002 6:45,16.6,1,0,1,15.9,1,18.4,1
11/4/2002 7:00,17,1,0,1,15.8,1,18.5,1
11/4/2002 7:15,23.7,1,0,1,15.7,1,18.5,1
11/4/2002 7:30,24.8,1,0,1,15.7,1,18.6,1
11/4/2002 7:45,22.2,1,0,1,15.6,1,16.4,1
11/4/2002 8:00,20.4,1,0,1,15.6,1,16.5,1
11/4/2002 8:15,19.6,1,0,1,15.6,1,16.6,1
11/4/2002 8:30,19.2,1,0,1,15.6,1,16.7,1
11/4/2002 8:45,18.9,1,0,1,15.6,1,16.8,1
11/4/2002 9:00,18.8,1,0,1,15.6,1,16.9,1
11/4/2002 9:15,18.8,1,0,1,15.6,1,17,1
11/4/2002 9:30,18.9,1,0,1,15.6,1,17,1
11/4/2002 9:45,18.9,1,0,1,15.7,1,17.1,1
11/4/2002 10:00,18.9,1,0,1,15.8,1,17.2,1
11/4/2002 10:15,19.1,1,0,1,15.9,1,17.2,1
11/4/2002 10:30,19.3,1,0,1,16.2,1,17.3,1
11/4/2002 10:45,19.4,1,0,1,16.7,1,17.4,1
11/4/2002 11:00,19.3,1,0,1,17.3,1,17.4,1
11/4/2002 11:15,19.3,1,0,1,17.7,1,17.5,1
11/4/2002 11:30,19.3,1,0,1,18,1,17.6,1
11/4/2002 11:45,19.4,1,0,1,18.2,1,17.6,1
11/4/2002 12:00,19.5,1,0,1,18.3,1,17.7,1
11/4/2002 12:15,19.6,1,0,1,18.3,1,17.8,1
11/4/2002 12:30,19.7,1,0,1,18.4,1,17.8,1
11/4/2002 12:45,19.8,1,0,1,18.5,1,17.9,1
11/4/2002 13:00,19.9,1,0,1,18.5,1,17.9,1
11/4/2002 13:15,20,1,0,1,18.6,1,18,1
11/4/2002 13:30,20,1,0,1,18.6,1,18,1
11/4/2002 13:45,20.1,1,0,1,18.7,1,18.1,1
11/4/2002 14:00,20.2,1,0,1,18.8,1,18.2,1
11/4/2002 14:15,20.3,1,0,1,18.9,1,18.2,1
11/4/2002 14:30,20.4,1,0,1,19,1,18.3,1
11/4/2002 14:45,20.5,1,0,1,19.1,1,18.3,1
11/4/2002 15:00,20.5,1,0,1,19.2,1,18.4,1
11/4/2002 15:15,20.5,1,0,1,19.3,1,18.4,1
11/4/2002 15:30,20.4,1,0,1,19.3,1,18.5,1
11/4/2002 15:45,20.3,1,0,1,19.2,1,18.6,1
11/4/2002 16:00,20.3,1,0,1,19.1,1,18.6,1
11/4/2002 16:15,20.2,1,0,1,19,1,18.7,1
11/4/2002 16:30,20.1,1,0,1,18.9,1,18.8,1
11/4/2002 16:45,20,1,0,1,18.7,1,18.8,1
11/4/2002 17:00,19.9,1,0,1,18.6,1,18.9,1
11/4/2002 17:15,19.8,1,0,1,18.4,1,18.9,1
11/4/2002 17:30,19.7,1,0,1,18.3,1,19,1
11/4/2002 17:45,19.6,1,0,1,18.2,1,19,1
11/4/2002 18:00,19.6,1,0,1,18.1,1,19.1,1
11/4/2002 18:15,19.5,1,0,1,18,1,19.1,1
11/4/2002 18:30,19.4,1,0,1,17.9,1,19.2,1
11/4/2002 18:45,19.4,1,0,1,17.8,1,19.2,1
11/4/2002 19:00,19.4,1,0,1,17.7,1,19.3,1
11/4/2002 19:15,19.3,1,0,1,17.7,1,19.3,1
11/4/2002 19:30,19.2,1,0,1,17.7,1,19.3,1
11/4/2002 19:45,19.2,1,0,1,17.6,1,19.4,1
11/4/2002 20:00,19.1,1,0,1,17.5,1,19.4,1
11/4/2002 20:15,19,1,0,1,17.4,1,19.5,1
11/4/2002 20:30,18.9,1,0,1,17.3,1,19.5,1
11/4/2002 20:45,18.9,1,0,1,17.2,1,19.5,1
11/4/2002 21:00,18.9,1,0,1,17.1,1,19.5,1
11/4/2002 21:15,18.9,1,0,1,17.1,1,19.6,1
11/4/2002 21:30,18.8,1,0,1,17,1,19.6,1
11/4/2002 21:45,18.7,1,0,1,16.9,1,19.6,1
11/4/2002 22:00,18.6,1,0,1,16.8,1,19.6,1
11/4/2002 22:15,23.4,1,0,1,16.9,1,19.7,1
11/4/2002 22:30,25,1,0,1,17.7,1,19.7,1
11/4/2002 22:45,26.5,1,0,1,17.5,1,19.7,1
11/4/2002 23:00,26.8,1,0,1,17.2,1,16.6,1
11/4/2002 23:15,27.3,1,0,1,17,1,16.7,1
11/4/2002 23:30,27.5,1,0,1,18.1,1,16.8,1
11/4/2002 23:45,27.6,1,0,1,19,1,16.9,1
11/5/2002 0:00,27.5,1,0,1,19.5,1,17,1
11/5/2002 0:15,28.2,1,0,1,19.1,1,17.1,1
11/5/2002 0:30,23.7,1,0,1,18.9,1,17.2,1
11/5/2002 0:45,22.6,1,0,1,18.7,1,17.3,1
11/5/2002 1:00,21.9,1,0,1,18.5,1,17.3,1
11/5/2002 1:15,21.2,1,0,1,18.3,1,17.4,1
11/5/2002 1:30,20.7,1,0,1,18.1,1,17.5,1
11/5/2002 1:45,20.3,1,0,1,18,1,17.6,1
11/5/2002 2:00,20,1,0,1,17.9,1,17.7,1
11/5/2002 2:15,19.6,1,0,1,17.8,1,17.7,1
11/5/2002 2:30,19.4,1,0,1,17.7,1,17.8,1
11/5/2002 2:45,19.2,1,0,1,17.6,1,17.9,1
11/5/2002 3:00,19,1,0,1,17.5,1,17.9,1
11/5/2002 3:15,18.8,1,0,1,17.4,1,18,1
11/5/2002 3:30,18.6,1,0,1,17.3,1,18,1
11/5/2002 3:45,18.5,1,0,1,17.2,1,18.1,1
11/5/2002 4:00,18.3,1,0,1,17.2,1,18.1,1
11/5/2002 4:15,18.2,1,0,1,17.2,1,18.2,1
11/5/2002 4:30,18.1,1,0,1,17.1,1,18.2,1
11/5/2002 4:45,17.9,1,0,1,17,1,18.3,1
11/5/2002 5:00,17.6,1,0,1,16.9,1,18.3,1
11/5/2002 5:15,17.6,1,0,1,16.8,1,18.4,1
11/5/2002 5:30,17.4,1,0,1,16.7,1,18.4,1
11/5/2002 5:45,17.3,1,0,1,16.6,1,18.4,1
11/5/2002 6:00,17.2,1,0,1,16.5,1,18.5,1
11/5/2002 6:15,17.1,1,0,1,16.5,1,18.5,1
11/5/2002 6:30,17,1,0,1,16.4,1,18.5,1
11/5/2002 6:45,16.9,1,0,1,16.3,1,18.6,1
11/5/2002 7:00,16.8,1,0,1,16.2,1,18.6,1
11/5/2002 7:15,16.7,1,0,1,16.2,1,18.6,1
11/5/2002 7:30,16.7,1,0,1,16.1,1,18.7,1
11/5/2002 7:45,16.8,1,0,1,16,1,18.7,1
11/5/2002 8:00,16.7,1,0,1,15.9,1,18.7,1
11/5/2002 8:15,16.8,1,0,1,15.9,1,18.7,1
11/5/2002 8:30,16.8,1,0,1,15.8,1,18.8,1
11/5/2002 8:45,16.9,1,0,1,15.7,1,18.8,1
11/5/2002 9:00,16.5,1,0,1,15.7,1,18.8,1
11/5/2002 9:15,17.2,1,0,1,15.7,1,18.8,1
11/5/2002 9:30,17.6,1,0,1,15.7,1,14.8,1
11/5/2002 9:45,17.8,1,0,1,15.7,1,15,1
11/5/2002 10:00,18.2,1,0,1,15.7,1,13.9,1
11/5/2002 10:15,18.7,1,0,1,15.7,1,14.1,1
11/5/2002 10:30,19.2,1,0,1,15.9,1,14.2,1
11/5/2002 10:45,19.2,1,0,1,16.5,1,14.3,1
11/5/2002 11:00,19,1,0,1,17,1,14,1
11/5/2002 11:15,18.9,1,0,1,17.4,1,14.1,1
11/5/2002 11:30,18.8,1,0,1,17.6,1,14.3,1
11/5/2002 11:45,18.9,1,0,1,17.7,1,14.4,1
11/5/2002 12:00,18.9,1,0,1,17.8,1,14.5,1
11/5/2002 12:15,19,1,0,1,17.8,1,14.6,1
11/5/2002 12:30,19.1,1,0,1,17.8,1,14.7,1
11/5/2002 12:45,19.2,1,0,1,17.7,1,14.8,1
11/5/2002 13:00,19.2,1,0,1,17.7,1,14.9,1
11/5/2002 13:15,19.2,1,0,1,17.8,1,15,1
11/5/2002 13:30,19.4,1,0,1,17.8,1,15.1,1
11/5/2002 13:45,19.3,1,0,1,17.9,1,15.2,1
11/5/2002 14:00,19.2,1,0,1,17.9,1,15.3,1
11/5/2002 14:15,19.2,1,0,1,17.9,1,15.5,1
11/5/2002 14:30,19.3,1,0,1,17.9,1,15.6,1
11/5/2002 14:45,19.3,1,0,1,18,1,15.7,1
11/5/2002 15:00,19.3,1,0,1,18.1,1,15.8,1
11/5/2002 15:15,19.4,1,0,1,18.2,1,15.9,1
11/5/2002 15:30,19.3,1,0,1,18.2,1,16,1
11/5/2002 15:45,19.3,1,0,1,18.2,1,16.1,1
11/5/2002 16:00,19.3,1,0,1,18.2,1,16.2,1
11/5/2002 16:15,19.1,1,0,1,18.2,1,16.3,1
11/5/2002 16:30,19.1,1,0,1,18.1,1,16.4,1
11/5/2002 16:45,19,1,0,1,18,1,16.6,1
11/5/2002 17:00,18.9,1,0,1,17.9,1,16.6,1
11/5/2002 17:15,18.8,1,0,1,17.8,1,16.7,1
11/5/2002 17:30,18.7,1,0,1,17.7,1,16.8,1
11/5/2002 17:45,18.6,1,0,1,17.6,1,16.9,1
11/5/2002 18:00,18.6,1,0,1,17.5,1,17,1
11/5/2002 18:15,18.5,1,0,1,17.4,1,17.1,1
11/5/2002 18:30,18.4,1,0,1,17.3,1,17.2,1
11/5/2002 18:45,18.3,1,0,1,17.2,1,17.3,1
11/5/2002 19:00,18.3,1,0,1,17.1,1,17.3,1
11/5/2002 19:15,18.2,1,0,1,17,1,17.4,1
11/5/2002 19:30,18.1,1,0,1,16.9,1,17.5,1
11/5/2002 19:45,18,1,0,1,16.8,1,17.6,1
11/5/2002 20:00,17.9,1,0,1,16.6,1,17.6,1
11/5/2002 20:15,17.9,1,0,1,16.6,1,17.7,1
11/5/2002 20:30,17.8,1,0,1,16.5,1,17.8,1
11/5/2002 20:45,17.7,1,0,1,16.4,1,17.8,1
11/5/2002 21:00,17.6,1,0,1,16.3,1,17.9,1
11/5/2002 21:15,17.5,1,0,1,16.2,1,18,1
11/5/2002 21:30,17.5,1,0,1,16.1,1,18,1
11/5/2002 21:45,17.4,1,0,1,16,1,18.1,1
11/5/2002 22:00,17.3,1,0,1,15.9,1,18.1,1
11/5/2002 22:15,17.2,1,0,1,15.8,1,18.2,1
11/5/2002 22:30,17.1,1,0,1,15.7,1,18.2,1
11/5/2002 22:45,17,1,0,1,15.6,1,18.3,1
11/5/2002 23:00,16.9,1,0,1,15.4,1,18.3,1
11/5/2002 23:15,16.9,1,0,1,15.3,1,18.3,1
11/5/2002 23:30,16.8,1,0,1,15.2,1,18.4,1
11/5/2002 23:45,23.1,1,0,1,16.2,1,14.5,1
11/6/2002 0:00,24.2,1,0,1,17.7,1,14.6,1
11/6/2002 0:15,25.5,1,0,1,18.5,1,14.8,1
11/6/2002 0:30,26,1,0,1,19.2,1,14.9,1
11/6/2002 0:45,26.6,1,0,1,19.6,1,15,1
11/6/2002 1:00,21.9,1,0,1,19.5,1,15.1,1
11/6/2002 1:15,20.7,1,0,1,18.9,1,15.2,1
11/6/2002 1:30,19.9,1,0,1,18.5,1,15.3,1
11/6/2002 1:45,19.4,1,0,1,18.2,1,15.4,1
11/6/2002 2:00,19,1,0,1,17.9,1,15.5,1
11/6/2002 2:15,18.7,1,0,1,17.6,1,15.7,1
11/6/2002 2:30,18.5,1,0,1,17.5,1,15.8,1
11/6/2002 2:45,18.2,1,0,1,17.3,1,15.9,1
11/6/2002 3:00,17.9,1,0,1,17.1,1,16,1
11/6/2002 3:15,17.7,1,0,1,17,1,16,1
11/6/2002 3:30,17.6,1,0,1,16.9,1,16.1,1
11/6/2002 3:45,17.4,1,0,1,16.8,1,16.2,1
11/6/2002 4:00,17.2,1,0,1,16.7,1,16.3,1
11/6/2002 4:15,17.1,1,0,1,16.5,1,16.4,1
11/6/2002 4:30,16.9,1,0,1,16.4,1,16.5,1
11/6/2002 4:45,16.8,1,0,1,16.3,1,16.5,1
11/6/2002 5:00,16.7,1,0,1,16.1,1,16.6,1
11/6/2002 5:15,16.6,1,0,1,16,1,16.7,1
11/6/2002 5:30,16.5,1,0,1,15.9,1,16.7,1
11/6/2002 5:45,16.3,1,0,1,15.9,1,16.8,1
11/6/2002 6:00,16.2,1,0,1,15.8,1,16.9,1
11/6/2002 6:15,16.1,1,0,1,15.7,1,16.9,1
11/6/2002 6:30,16,1,0,1,15.7,1,17,1
11/6/2002 6:45,15.9,1,0,1,15.6,1,17,1
11/6/2002 7:00,15.8,1,0,1,15.5,1,17.1,1
11/6/2002 7:15,15.7,1,0,1,15.4,1,17.2,1
11/6/2002 7:30,15.6,1,0,1,15.3,1,17.2,1
11/6/2002 7:45,15.6,1,0,1,15.2,1,17.2,1
11/6/2002 8:00,15.6,1,0,1,15.2,1,17.3,1
11/6/2002 8:15,15.6,1,0,1,15.2,1,17.3,1
11/6/2002 8:30,15.6,1,0,1,15.2,1,17.4,1
11/6/2002 8:45,15.6,1,0,1,15.2,1,17.4,1
11/6/2002 9:00,15.7,1,0,1,15.2,1,17.4,1
11/6/2002 9:15,15.9,1,0,1,15.3,1,17.5,1
11/6/2002 9:30,16,1,0,1,15.3,1,17.5,1
11/6/2002 9:45,16.4,1,0,1,15.3,1,17.5,1
11/6/2002 10:00,23,1,0,1,15.3,1,17.6,1
11/6/2002 10:15,19.6,1,0,1,15.3,1,17.6,1
11/6/2002 10:30,19.7,1,0,1,15.4,1,17.6,1
11/6/2002 10:45,19.8,1,0,1,15.9,1,17.7,1
11/6/2002 11:00,19.5,1,0,1,16.4,1,14.2,1
11/6/2002 11:15,19.9,1,0,1,16.8,1,14.3,1
11/6/2002 11:30,20,1,0,1,17.1,1,14.4,1
11/6/2002 11:45,19.7,1,0,1,17.6,1,14.5,1
11/6/2002 12:00,19.7,1,0,1,17.9,1,13.4,1
11/6/2002 12:15,19.7,1,0,1,17.9,1,13.6,1
11/6/2002 12:30,19.8,1,0,1,17.9,1,13.7,1
11/6/2002 12:45,19.9,1,0,1,17.9,1,13.8,1
11/6/2002 13:00,20,1,0,1,17.9,1,13.9,1
11/6/2002 13:15,20.1,1,0,1,18,1,14.1,1
11/6/2002 13:30,20.1,1,0,1,18,1,14.2,1
11/6/2002 13:45,19.8,1,0,1,18,1,14.3,1
11/6/2002 14:00,19.8,1,0,1,18,1,14.4,1
11/6/2002 14:15,19.7,1,0,1,18,1,14.5,1
11/6/2002 14:30,19.7,1,0,1,18,1,14.6,1
11/6/2002 14:45,19.7,1,0,1,18.1,1,14.7,1
11/6/2002 15:00,19.7,1,0,1,18.2,1,14.8,1
11/6/2002 15:15,19.6,1,0,1,18.2,1,14.9,1
11/6/2002 15:30,19.6,1,0,1,18.2,1,15,1
11/6/2002 15:45,19.5,1,0,1,18.2,1,15.1,1
11/6/2002 16:00,19.4,1,0,1,18.1,1,15.2,1
11/6/2002 16:15,19.3,1,0,1,18,1,15.4,1
11/6/2002 16:30,19.2,1,0,1,17.9,1,15.5,1
11/6/2002 16:45,19,1,0,1,17.8,1,15.6,1
11/6/2002 17:00,18.9,1,0,1,17.6,1,15.7,1
11/6/2002 17:15,18.8,1,0,1,17.5,1,15.8,1
11/6/2002 17:30,18.7,1,0,1,17.4,1,15.9,1
11/6/2002 17:45,18.6,1,0,1,17.3,1,16,1
11/6/2002 18:00,18.5,1,0,1,17.1,1,16.1,1
11/6/2002 18:15,18.4,1,0,1,17,1,16.2,1
11/6/2002 18:30,18.3,1,0,1,16.9,1,16.3,1
11/6/2002 18:45,18.2,1,0,1,16.8,1,16.4,1
11/6/2002 19:00,18.2,1,0,1,16.7,1,16.6,1
11/6/2002 19:15,18.1,1,0,1,16.6,1,16.6,1
11/6/2002 19:30,18,1,0,1,16.5,1,16.7,1
11/6/2002 19:45,17.9,1,0,1,16.4,1,16.8,1
11/6/2002 20:00,17.8,1,0,1,16.3,1,16.9,1
11/6/2002 20:15,17.7,1,0,1,16.2,1,17,1
11/6/2002 20:30,17.6,1,0,1,16.1,1,17,1
11/6/2002 20:45,17.5,1,0,1,15.9,1,17.1,1
11/6/2002 21:00,17.4,1,0,1,15.8,1,17.2,1
11/6/2002 21:15,17.3,1,0,1,15.7,1,17.3,1
11/6/2002 21:30,17.2,1,0,1,15.6,1,17.3,1
11/6/2002 21:45,17.1,1,0,1,15.5,1,17.4,1
11/6/2002 22:00,17,1,0,1,15.4,1,17.5,1
11/6/2002 22:15,16.9,1,0,1,15.3,1,17.5,1
11/6/2002 22:30,16.9,1,0,1,15.2,1,17.6,1
11/6/2002 22:45,23.2,1,0,1,15.2,1,15,1
11/6/2002 23:00,24.5,1,0,1,15.5,1,15.1,1
11/6/2002 23:15,23.7,1,0,1,16,1,15.2,1
11/6/2002 23:30,25.3,1,0,1,17.4,1,15.3,1
11/6/2002 23:45,26.1,1,0,1,18.3,1,15.5,1
11/7/2002 0:00,26.5,1,0,1,18.8,1,15.6,1
11/7/2002 0:15,27.4,1,0,1,19.2,1,15.7,1
11/7/2002 0:30,27.8,1,0,1,19.5,1,15.8,1
11/7/2002 0:45,27.9,1,0,1,19.9,1,15.9,1
11/7/2002 1:00,23.8,1,0,1,19.7,1,16,1